Time,TemperatureF,DewpointF,PressureIn,WindDirection,WindDirectionDegrees,WindSpeedMPH,WindSpeedGustMPH,Humidity,HourlyPrecipIn,Conditions,Clouds,dailyrainin,SoftwareType,DateUTC
2013-07-09 01:42:00,71.0,67.0,30.09,East,100,1.0,0.0,88,-99.99,,,-99.99,,2013-07-09 05:42:00,
2013-07-09 01:52:00,71.0,67.0,30.09,East,100,1.0,0.0,88,-99.99,,,-99.99,,2013-07-09 05:52:00,
2013-07-09 02:01:00,71.0,67.0,30.08,East,86,1.0,0.0,88,-99.99,,,-99.99,,2013-07-09 06:01:00,
2013-07-09 02:11:00,71.0,67.0,30.08,East,86,1.0,0.0,88,-99.99,,,-99.99,,2013-07-09 06:11:00,
2013-07-09 02:22:00,71.0,67.0,30.08,SE,146,2.0,0.0,88,-99.99,,,-99.99,,2013-07-09 06:22:00,
2013-07-09 02:31:00,70.0,67.0,30.08,East,79,2.0,0.0,91,-99.99,,,-99.99,,2013-07-09 06:31:00,
2013-07-09 02:43:00,70.0,67.0,30.08,East,80,0.0,0.0,91,-99.99,,,-99.99,,2013-07-09 06:43:00,
2013-07-09 02:53:00,70.0,67.0,30.08,East,79,2.0,0.0,91,-99.99,,,-99.99,,2013-07-09 06:53:00,
2013-07-09 03:02:00,70.0,67.0,30.08,East,79,2.0,0.0,91,-99.99,,,-99.99,,2013-07-09 07:02:00,
2013-07-09 03:12:00,70.0,67.0,30.08,East,79,2.0,0.0,91,-99.99,,,-99.99,,2013-07-09 07:12:00,
2013-07-09 03:22:00,70.0,67.0,30.08,East,79,2.0,0.0,91,-99.99,,,-99.99,,2013-07-09 07:22:00,
2013-07-09 03:41:00,71.0,68.0,30.07,ESE,120,1.0,0.0,89,-99.99,,,-99.99,,2013-07-09 07:41:00,
2013-07-09 04:01:00,71.0,68.0,30.07,ESE,120,1.0,0.0,89,-99.99,,,-99.99,,2013-07-09 08:01:00,
2013-07-09 04:11:00,71.0,68.0,30.07,ESE,120,1.0,0.0,89,-99.99,,,-99.99,,2013-07-09 08:11:00,
2013-07-09 04:22:00,71.0,68.0,30.07,ESE,120,1.0,0.0,89,-99.99,,,-99.99,,2013-07-09 08:22:00,
2013-07-09 04:33:00,71.0,68.0,30.07,ESE,120,1.0,0.0,89,-99.99,,,-99.99,,2013-07-09 08:33:00,
2013-07-09 05:12:00,71.0,68.0,30.08,East,89,0.0,0.0,89,-99.99,,,-99.99,,2013-07-09 09:12:00,
2013-07-09 07:11:00,69.0,67.0,30.09,SE,143,0.0,0.0,94,-99.99,,,-99.99,,2013-07-09 11:11:00,
2013-07-09 07:22:00,69.0,67.0,30.09,SE,143,0.0,0.0,94,-99.99,,,-99.99,,2013-07-09 11:22:00,
2013-07-09 07:51:00,70.0,68.0,30.09,ESE,112,0.0,0.0,92,-99.99,,,-99.99,,2013-07-09 11:51:00,
2013-07-09 07:53:00,70.0,68.0,30.09,SSE,150,0.0,0.0,93,-99.99,,,-99.99,,2013-07-09 11:53:00,
2013-07-09 08:02:00,70.0,68.0,30.09,ESE,115,1.0,0.0,92,-99.99,,,-99.99,,2013-07-09 12:02:00,
2013-07-09 08:11:00,70.0,68.0,30.09,ESE,112,0.0,0.0,92,-99.99,,,-99.99,,2013-07-09 12:11:00,
2013-07-09 08:22:00,70.0,68.0,30.09,ESE,112,0.0,0.0,92,-99.99,,,-99.99,,2013-07-09 12:22:00,
2013-07-09 08:33:00,70.0,68.0,30.09,ESE,112,0.0,0.0,92,-99.99,,,-99.99,,2013-07-09 12:33:00,
2013-07-09 08:43:00,70.0,68.0,30.09,ESE,112,0.0,0.0,92,-99.99,,,-99.99,,2013-07-09 12:43:00,
2013-07-09 09:11:00,73.0,69.0,30.09,East,86,2.0,0.0,88,-99.99,,,-99.99,,2013-07-09 13:11:00,
2013-07-09 10:11:00,75.0,70.0,30.10,SSE,154,0.0,0.0,84,-99.99,,,-99.99,,2013-07-09 14:11:00,
2013-07-09 10:22:00,77.0,70.0,30.09,ESE,109,0.0,0.0,80,-99.99,,,-99.99,,2013-07-09 14:22:00,
2013-07-09 10:34:00,77.0,70.0,30.09,ESE,109,0.0,0.0,80,-99.99,,,-99.99,,2013-07-09 14:34:00,
2013-07-09 10:43:00,77.0,70.0,30.09,ESE,109,0.0,0.0,80,-99.99,,,-99.99,,2013-07-09 14:43:00,
2013-07-09 10:53:00,78.0,71.0,30.09,East,96,1.0,0.0,78,-99.99,,,-99.99,,2013-07-09 14:53:00,
2013-07-09 11:51:00,79.0,72.0,30.09,ESE,120,1.0,0.0,79,-99.99,,,-99.99,,2013-07-09 15:51:00,
2013-07-09 11:52:00,78.0,71.0,30.10,East,85,1.0,0.0,80,-99.99,,,-99.99,,2013-07-09 15:52:00,
2013-07-09 12:02:00,79.0,72.0,30.10,NNW,334,1.0,0.0,79,-99.99,,,-99.99,,2013-07-09 16:02:00,
2013-07-09 12:22:00,79.0,72.0,30.09,ESE,120,1.0,0.0,79,-99.99,,,-99.99,,2013-07-09 16:22:00,
2013-07-09 12:34:00,79.0,72.0,30.09,ESE,120,1.0,0.0,79,-99.99,,,-99.99,,2013-07-09 16:34:00,
2013-07-09 12:43:00,79.0,72.0,30.09,ESE,120,1.0,0.0,79,-99.99,,,-99.99,,2013-07-09 16:43:00,
2013-07-09 13:11:00,84.0,70.0,30.09,NW,318,1.0,0.0,62,-99.99,,,-99.99,,2013-07-09 17:11:00,
2013-07-09 13:45:00,87.0,71.0,30.08,NNW,328,0.0,0.0,59,-99.99,,,-99.99,,2013-07-09 17:45:00,
2013-07-09 13:53:00,87.0,71.0,30.08,NNW,328,0.0,0.0,59,-99.99,,,-99.99,,2013-07-09 17:53:00,
2013-07-09 14:02:00,87.0,71.0,30.08,NNW,328,0.0,0.0,59,-99.99,,,-99.99,,2013-07-09 18:02:00,
2013-07-09 14:11:00,89.0,67.0,30.06,NNE,27,2.0,0.0,49,-99.99,,,-99.99,,2013-07-09 18:11:00,
2013-07-09 14:32:00,88.0,68.0,30.05,SSE,148,1.0,0.0,51,-99.99,,,-99.99,,2013-07-09 18:32:00,
2013-07-09 14:43:00,88.0,70.0,30.05,ENE,66,1.0,0.0,55,-99.99,,,-99.99,,2013-07-09 18:43:00,
2013-07-09 14:52:00,88.0,70.0,30.05,ENE,66,1.0,0.0,55,-99.99,,,-99.99,,2013-07-09 18:52:00,
2013-07-09 15:33:00,90.0,71.0,30.04,East,90,1.0,0.0,53,-99.99,,,-99.99,,2013-07-09 19:33:00,
2013-07-09 15:42:00,90.0,71.0,30.04,East,90,1.0,0.0,53,-99.99,,,-99.99,,2013-07-09 19:42:00,
2013-07-09 15:52:00,91.0,69.0,30.03,East,91,0.0,0.0,48,-99.99,,,-99.99,,2013-07-09 19:52:00,
2013-07-09 16:02:00,91.0,65.0,30.02,East,94,0.0,0.0,43,-99.99,,,-99.99,,2013-07-09 20:02:00,
2013-07-09 16:11:00,91.0,65.0,30.02,East,94,0.0,0.0,43,-99.99,,,-99.99,,2013-07-09 20:11:00,
2013-07-09 16:22:00,91.0,65.0,30.02,East,94,0.0,0.0,43,-99.99,,,-99.99,,2013-07-09 20:22:00,
2013-07-09 16:43:00,90.0,66.0,30.02,NW,323,2.0,0.0,45,-99.99,,,-99.99,,2013-07-09 20:43:00,
2013-07-09 16:52:00,90.0,66.0,30.02,NW,323,2.0,0.0,45,-99.99,,,-99.99,,2013-07-09 20:52:00,
2013-07-09 19:53:00,84.0,72.0,29.99,NE,47,0.0,0.0,68,-99.99,,,-99.99,,2013-07-09 23:53:00,
2013-07-09 20:01:00,84.0,72.0,29.99,NE,47,0.0,0.0,68,-99.99,,,-99.99,,2013-07-10 00:01:00,
2013-07-09 20:33:00,82.0,72.0,30.00,SSE,157,0.0,0.0,71,-99.99,,,-99.99,,2013-07-10 00:33:00,
2013-07-09 20:43:00,82.0,72.0,30.00,SSE,157,0.0,0.0,71,-99.99,,,-99.99,,2013-07-10 00:43:00,
2013-07-09 20:52:00,81.0,72.0,30.00,SSE,155,0.0,0.0,75,-99.99,,,-99.99,,2013-07-10 00:52:00,
2013-07-09 21:01:00,80.0,72.0,30.00,SSE,155,0.0,0.0,78,-99.99,,,-99.99,,2013-07-10 01:01:00,
2013-07-09 21:11:00,80.0,72.0,30.00,SSE,155,0.0,0.0,78,-99.99,,,-99.99,,2013-07-10 01:11:00,
2013-07-09 21:22:00,79.0,72.0,30.00,SSE,155,0.0,0.0,79,-99.99,,,-99.99,,2013-07-10 01:22:00,
2013-07-09 21:33:00,79.0,72.0,30.00,SSE,155,0.0,0.0,79,-99.99,,,-99.99,,2013-07-10 01:33:00,
2013-07-09 21:43:00,79.0,72.0,30.00,SSE,155,0.0,0.0,79,-99.99,,,-99.99,,2013-07-10 01:43:00,
2013-07-09 21:53:00,79.0,72.0,30.00,SSE,155,0.0,0.0,79,-99.99,,,-99.99,,2013-07-10 01:53:00,
2013-07-09 23:12:00,75.0,72.0,30.02,SE,143,0.0,0.0,89,-99.99,,,-99.99,,2013-07-10 03:12:00,
2013-07-09 23:52:00,74.0,71.0,30.02,SE,143,0.0,0.0,91,-99.99,,,-99.99,,2013-07-10 03:52:00,